Vorticity
nan nan nan nan nan nan nan nan nan nan nan nan nan nan nan nan nan nan nan nan nan nan nan nan nan nan nan nan nan nan nan nan
nan 9 8 7 4 6 10 8 9 10 10 10 9 8 7 8 9 8 6 7 6 5 5 6 6 5 5 5 6 7 6 nan
nan 6 8 9 7 5 6 8 8 9 9 10 11 9 9 8 6 8 9 7 7 7 6 6 7 8 7 6 7 7 7 nan
nan 7 6 9 7 6 6 7 8 9 9 9 8 8 8 8 9 9 10 10 11 8 8 8 7 8 9 9 8 7 8 nan
nan 10 8 8 9 9 7 6 7 5 7 13 13 10 8 9 9 8 10 10 8 9 9 9 8 6 6 9 7 7 7 nan
nan 9 8 9 10 7 8 8 8 7 5 9 12 13 13 9 6 8 8 9 7 7 7 7 7 6 7 7 5 6 6 nan
nan 8 8 8 10 9 7 7 7 7 6 7 10 9 8 9 14 13 7 8 8 8 7 7 7 7 7 7 7 6 5 nan
nan 8 8 8 7 8 8 7 8 8 6 4 8 10 8 9 9 12 14 10 6 8 7 7 7 7 6 8 8 7 7 nan
nan 8 9 8 8 9 8 7 8 8 6 6 6 8 8 9 10 9 8 10 16 11 8 7 7 8 8 7 8 8 7 nan
nan 6 9 9 10 10 8 7 8 7 7 7 5 7 8 10 9 7 7 8 12 14 15 8 8 7 8 8 8 8 9 nan
nan 7 7 8 9 10 10 9 8 8 8 6 5 7 8 10 9 6 9 10 9 8 11 14 9 7 8 8 8 8 9 nan
nan 7 6 9 10 9 9 7 6 7 7 5 8 6 7 10 8 7 10 9 8 8 9 8 13 13 9 9 8 8 8 nan
nan 8 8 10 8 10 8 5 7 6 6 6 8 7 8 9 8 7 7 8 6 9 11 11 10 13 13 9 10 12 9 nan
nan 7 8 10 10 9 8 8 9 7 6 6 5 6 9 9 8 7 7 8 8 8 9 10 11 9 10 11 11 13 13 nan
nan 7 8 8 9 11 12 11 7 7 6 7 6 7 8 7 8 9 10 10 7 7 8 8 10 7 11 11 7 8 11 nan
nan 8 8 7 9 9 11 10 8 7 7 5 5 6 6 8 9 9 9 9 8 8 7 9 10 8 11 10 6 8 3 nan
nan 9 8 7 8 7 7 8 9 9 7 6 7 7 7 8 8 9 11 10 8 8 7 9 11 9 7 7 11 12 10 nan
nan 9 8 8 8 8 7 6 6 8 10 11 8 8 7 7 9 10 10 7 9 11 9 11 9 9 9 8 9 9 12 nan
nan 7 8 8 8 9 9 8 6 5 10 10 9 11 7 6 8 9 9 8 10 11 12 11 10 10 8 9 10 9 8 nan
nan nan nan nan nan nan nan nan nan nan nan nan nan nan nan nan nan nan nan nan nan nan nan nan nan nan nan nan nan nan nan nan
CAPE
0 0 11 399 566 762 1055 1348 1602 1596 1607 1713 1924 1950 1846 1819 1795 1828 1855 1849 1840 1342 888 675 565 459 250 42 0 62 0 1
0 0 0 0 59 561 649 710 969 1243 1436 1515 1640 1745 1714 1589 1562 1596 1707 1792 1795 1388 707 548 405 255 147 71 27 21 0 0
0 0 0 0 0 0 53 592 637 741 971 1170 821 870 1206 1318 1219 1223 1466 1640 1691 1505 860 396 291 265 236 170 71 0 0 0
0 0 0 0 0 0 0 0 3 434 600 850 1110 846 1060 1125 1226 1256 1115 1366 1544 1438 1061 582 302 99 91 176 65 6 0 0
0 0 0 0 0 0 0 0 0 1 2 462 790 855 694 773 894 895 852 931 1051 1193 942 455 225 103 61 49 48 4 0 0
0 0 0 0 0 0 0 0 0 2 0 0 3 275 1075 912 714 866 677 739 1193 828 502 325 185 94 66 57 51 17 0 0
0 0 0 0 0 0 0 0 0 0 0 0 7 5 2 7 444 782 664 691 1018 885 529 331 189 98 67 40 57 53 11 7
0 0 0 0 0 0 0 0 0 0 0 0 0 0 6 9 3 3 652 714 913 928 674 504 321 159 101 58 71 48 41 26
0 0 0 0 0 0 0 0 0 0 0 0 0 0 0 1 3 3 1 0 729 1043 764 474 349 127 121 87 60 59 46 32
0 0 0 0 0 0 0 0 0 0 0 0 0 0 0 0 0 3 8 6 1 340 834 676 399 369 210 135 100 58 67 72
0 0 0 0 0 0 0 0 0 0 0 0 0 0 0 0 1 2 0 11 8 8 5 709 850 577 429 243 102 74 53 71
0 0 0 0 0 0 0 0 0 0 0 0 0 0 0 0 3 0 3 4 9 8 10 3 85 816 781 507 140 67 40 14
0 0 0 0 0 0 0 0 0 0 0 0 0 0 0 0 0 3 3 1 10 5 18 20 9 22 709 382 408 62 18 0
0 0 0 0 0 0 0 0 0 0 0 0 0 0 0 3 3 6 0 0 0 11 4 13 23 21 72 466 158 196 106 89
0 0 0 0 0 0 0 0 0 0 0 0 0 0 0 3 1 3 3 13 1 0 4 2 7 4 12 26 149 29 44 48
0 0 0 0 0 0 0 0 0 0 0 1 0 0 0 3 3 10 7 4 3 1 0 2 17 8 5 6 78 362 132 6
0 0 0 0 0 0 0 0 0 0 0 1 2 1 1 2 3 2 5 6 13 21 8 2 9 16 12 17 7 78 307 292
0 0 0 0 0 0 0 0 0 1 0 1 4 1 0 1 6 5 9 9 3 13 23 21 19 9 12 9 1 24 66 65
0 0 0 0 0 0 0 0 0 1 1 2 4 8 5 8 7 6 9 16 9 17 12 27 21 18 15 12 3 11 42 59
0 0 0 0 0 0 0 0 0 0 1 2 1 9 10 2 11 13 9 11 13 16 10 11 13 18 15 18 15 18 40 161